Weather History for El Dorado, AR

Change the Weather History Date:

Monday, June 10, 2013

  Actual Average Record
Temperature  
Mean Temperature 79 °F 77 °F  
Max Temperature 91 °F 88 °F 100 °F (1977)
Min Temperature 67 °F 66 °F 54 °F (1980)
Degree Days  
Heating Degree Days 0 0  
Month to date heating degree days 0 0  
Since 1 June heating degree days 0 0  
Since 1 July heating degree days 2712 2673  
Cooling Degree Days 14 12  
Month to date cooling degree days 100 113  
Year to date cooling degree days 378 424  
Since 1 June cooling degree days 100 113  
Growing Degree Days 28 (Base 50)    
Moisture  
Dew Point 70 °F    
Average Humidity 74    
Maximum Humidity 100    
Minimum Humidity 47    
Precipitation  
Precipitation 0.00 in 0.15 in 1.38 in (1951)
Month to date precipitation 3.81 1.48  
Year to date precipitation 20.90 24.46  
Snow  
Snow 0.00 in - - ()
Month to date snowfall 0.0  
Since 1 June snowfall 0.0  
Since 1 July snowfall 0.1  
Snow Depth 0.00 in    
Sea Level Pressure  
Sea Level Pressure 29.95 in    
Wind  
Wind Speed 4 mph (SSW)    
Max Wind Speed 13 mph    
Max Gust Speed 16 mph    
Visibility 9 miles    
Events      
T = Trace of Precipitation, MM = Missing Value Source: NWS Daily Summary

Daily Weather History Graph

Daily Weather History Graph

Search for Another Location

Airport:

Trip Planner

Search our weather history database for the weather conditions in past years. The results will help you decide how hot, cold, wet, or windy it might be!

Date:

Astronomy

Jun. 10, 2013 Rise Set
Actual Time 6:01 AM CDT 8:20 PM CDT
Civil Twilight 5:32 AM CDT 8:48 PM CDT
Nautical Twilight 4:57 AM CDT 9:24 PM CDT
Astronomical Twilight 4:19 AM CDT 10:02 PM CDT
Moon 7:46 AM CDT (6/10) 9:52 PM CDT (6/10)
Length of Visible Light 15h 16m
Length of Day
14h 18m
Waxing Crescent, 4% of the Moon is Illuminated
Jun 10
Waxing Crescent
Jun 16
First Quarter
Jun 23
Full
Jun 29
Last Quarter
Jul 8
New

Hourly Weather History & Observations

Time (CDT) Temp. Heat Index Dew Point Humidity Pressure Visibility Wind Dir Wind Speed Gust Speed Precip Events Conditions
12:53 AM 69.1 °F - 66.9 °F 93% 29.93 in 10.0 mi Calm Calm - N/A   Clear
1:53 AM 69.1 °F - 68.0 °F 96% 29.94 in 9.0 mi SSW 3.5 mph - N/A   Clear
2:53 AM 68.0 °F - 68.0 °F 100% 29.93 in 8.0 mi SW 3.5 mph - N/A   Clear
3:53 AM 68.0 °F - 66.9 °F 96% 29.94 in 8.0 mi Calm Calm - N/A   Clear
4:53 AM 66.9 °F - 66.9 °F 100% 29.94 in 7.0 mi SSW 4.6 mph - 0.01 in   Clear
5:53 AM 66.9 °F - 66.9 °F 100% 29.94 in 8.0 mi SSW 5.8 mph - N/A   Clear
6:53 AM 69.1 °F - 68.0 °F 96% 29.95 in 8.0 mi SSW 6.9 mph - N/A   Clear
7:00 AM 68.0 °F - 68.0 °F 100% 29.96 in 5.0 mi SSW 5.8 mph - N/A   Scattered Clouds
7:09 AM 68.0 °F - 68.0 °F 100% 29.96 in 4.0 mi SSW 4.6 mph - N/A   Mostly Cloudy
7:35 AM 69.8 °F - 68.0 °F 94% 29.97 in 10.0 mi SSW 4.6 mph - N/A   Scattered Clouds
7:53 AM 70.0 °F - 69.1 °F 97% 29.97 in 10.0 mi SW 5.8 mph - N/A   Clear
8:53 AM 75.0 °F - 69.1 °F 82% 29.98 in 10.0 mi WSW 4.6 mph - N/A   Clear
9:53 AM 80.1 °F 83.6 °F 71.1 °F 74% 29.97 in 10.0 mi Variable 3.5 mph - N/A   Clear
10:53 AM 84.0 °F 89.0 °F 71.1 °F 65% 29.97 in 10.0 mi WSW 5.8 mph - N/A   Clear
11:53 AM 86.0 °F 92.2 °F 72.0 °F 63% 29.96 in 10.0 mi Variable 5.8 mph - N/A   Clear
12:53 PM 88.0 °F 94.7 °F 72.0 °F 59% 29.96 in 10.0 mi Variable 5.8 mph - N/A   Clear
1:53 PM 89.1 °F 93.7 °F 69.1 °F 52% 29.95 in 10.0 mi SSW 9.2 mph - N/A   Clear
2:53 PM 91.0 °F 96.6 °F 70.0 °F 50% 29.94 in 10.0 mi South 6.9 mph - N/A   Clear
3:53 PM 90.0 °F 95.4 °F 70.0 °F 52% 29.94 in 10.0 mi SW 4.6 mph - N/A   Clear
4:53 PM 91.0 °F 95.6 °F 69.1 °F 48% 29.93 in 10.0 mi South 8.1 mph - N/A   Clear
5:19 PM 89.6 °F 96.2 °F 71.6 °F 55% 29.94 in 10.0 mi South 9.2 mph - N/A   Partly Cloudy
5:53 PM 90.0 °F 92.8 °F 66.9 °F 46% 29.93 in 10.0 mi SW 6.9 mph - N/A   Clear
6:53 PM 88.0 °F 92.9 °F 70.0 °F 55% 29.94 in 10.0 mi SW 4.6 mph - N/A   Clear
7:53 PM 84.0 °F 89.6 °F 72.0 °F 67% 29.94 in 10.0 mi Calm Calm - N/A   Clear
8:53 PM 78.1 °F - 73.9 °F 87% 29.94 in 10.0 mi South 3.5 mph - N/A   Clear
9:53 PM 77.0 °F - 73.0 °F 88% 29.95 in 10.0 mi Calm Calm - N/A   Clear
10:53 PM 73.9 °F - 72.0 °F 93% 29.96 in 10.0 mi Calm Calm - N/A   Clear
11:53 PM 73.0 °F - 71.1 °F 93% 29.97 in 10.0 mi Calm Calm - N/A   Clear